When you browse on this site, cookies collect data to enhance your experience and personalize the content and advertising you see.
Visit our Privacy Policy to learn more. By continuing to use the site, you agree to this use of cookies and data.
  • In Latvia
  • List of Countries
  • For 7 days
  • Water Temperature
  • Satellite Maps
  • Weather Map
  • Weather Widgets
  • user-avatar
    Login

    Hourly Weather Valmiera

    Today, 21 July, Sunday

    Time Temperature Precipitation Wind Pressure Humidity
    00:00 +13°C° 0 mm 0 mps 758 mmHg 92%
    01:00 +13°C° 0 mm 0 mps 758 mmHg 92%
    02:00 +13°C° 0 mm 0 mps 759 mmHg 93%
    03:00 +13°C° 0 mm 0 mps 759 mmHg 92%
    04:00 +13°C° 0 mm 0 mps 759 mmHg 91%
    05:00 +14°C° 0 mm 1 mps 759 mmHg 90%
    06:00 +16°C° 0 mm 1 mps 759 mmHg 82%
    07:00 +20°C° 0 mm 1 mps 759 mmHg 73%
    08:00 +22°C° 0 mm 1 mps 759 mmHg 64%
    09:00 +24°C° 0 mm 1 mps 759 mmHg 58%
    10:00 +25°C° 0 mm 1 mps 759 mmHg 52%
    11:00 +27°C° 0 mm 1 mps 759 mmHg 46%
    12:00 +27°C° 0 mm 1 mps 758 mmHg 44%
    13:00 +28°C° 0 mm 1 mps 758 mmHg 41%
    14:00 +29°C° 0 mm 1 mps 758 mmHg 37%
    15:00 +29°C° 0 mm 2 mps 758 mmHg 39%
    16:00 +28°C° 0 mm 2 mps 757 mmHg 41%
    17:00 +28°C° 0 mm 2 mps 757 mmHg 43%
    18:00 +26°C° 0 mm 2 mps 757 mmHg 52%
    19:00 +24°C° 0 mm 2 mps 757 mmHg 62%
    20:00 +23°C° 0 mm 2 mps 757 mmHg 72%
    21:00 +20°C° 0 mm 2 mps 757 mmHg 73%
    22:00 +19°C° 0 mm 2 mps 757 mmHg 74%
    23:00 +18°C° 0 mm 2 mps 757 mmHg 76%

    Tomorrow, 22 July, Monday

    Time Temperature Precipitation Wind Pressure Humidity
    00:00 +18°C° 0 mm 2 mps 757 mmHg 78%
    01:00 +17°C° 0 mm 2 mps 757 mmHg 79%
    02:00 +17°C° 0 mm 2 mps 756 mmHg 81%
    03:00 +17°C° 0.1 mm 2 mps 756 mmHg 83%
    04:00 +17°C° 0.1 mm 2 mps 756 mmHg 84%
    05:00 +18°C° 0.1 mm 1 mps 756 mmHg 86%
    06:00 +19°C° 0.1 mm 1 mps 756 mmHg 85%
    07:00 +20°C° 0.1 mm 1 mps 756 mmHg 84%
    08:00 +21°C° 0.1 mm 1 mps 756 mmHg 83%
    09:00 +21°C° 0.4 mm 1 mps 756 mmHg 82%
    10:00 +22°C° 0.4 mm 1 mps 756 mmHg 81%
    11:00 +22°C° 0.4 mm 1 mps 756 mmHg 80%
    12:00 +22°C° 1.4 mm 1 mps 756 mmHg 85%
    13:00 +21°C° 1.4 mm 1 mps 756 mmHg 89%
    14:00 +20°C° 1.4 mm 1 mps 756 mmHg 93%
    15:00 +20°C° 0.7 mm 1 mps 756 mmHg 94%
    16:00 +20°C° 0.7 mm 1 mps 756 mmHg 94%
    17:00 +20°C° 0.7 mm 1 mps 756 mmHg 95%
    18:00 +19°C° 0.1 mm 1 mps 756 mmHg 95%
    19:00 +19°C° 0.1 mm 1 mps 756 mmHg 95%
    20:00 +19°C° 0.1 mm 1 mps 756 mmHg 95%
    21:00 +18°C° 0.1 mm 1 mps 756 mmHg 95%
    22:00 +18°C° 0.1 mm 1 mps 756 mmHg 96%
    23:00 +16°C° 0.1 mm 2 mps 757 mmHg 96%

    Day after tomorrow, 23 July, Tuesday

    Time Temperature Precipitation Wind Pressure Humidity
    00:00 +16°C° 0 mm 1 mps 757 mmHg 96%
    01:00 +16°C° 0 mm 1 mps 756 mmHg 97%
    02:00 +15°C° 0 mm 1 mps 756 mmHg 97%
    03:00 +15°C° 0 mm 1 mps 757 mmHg 98%
    04:00 +15°C° 0 mm 1 mps 757 mmHg 98%
    05:00 +15°C° 0 mm 1 mps 757 mmHg 98%
    06:00 +18°C° 0 mm 1 mps 757 mmHg 94%
    07:00 +19°C° 0 mm 1 mps 757 mmHg 91%
    08:00 +21°C° 0 mm 1 mps 757 mmHg 87%
    09:00 +22°C° 0.4 mm 1 mps 757 mmHg 80%
    10:00 +23°C° 0.4 mm 1 mps 757 mmHg 73%
    11:00 +25°C° 0.4 mm 1 mps 757 mmHg 66%
    12:00 +25°C° 0.2 mm 2 mps 757 mmHg 66%
    13:00 +25°C° 0.2 mm 2 mps 757 mmHg 65%
    14:00 +25°C° 0.2 mm 3 mps 757 mmHg 64%
    15:00 +25°C° 0.4 mm 3 mps 757 mmHg 67%
    16:00 +24°C° 0.4 mm 3 mps 757 mmHg 70%
    17:00 +24°C° 0.4 mm 3 mps 757 mmHg 74%
    18:00 +23°C° 0.2 mm 2 mps 757 mmHg 79%
    19:00 +20°C° 0.2 mm 2 mps 757 mmHg 85%
    20:00 +19°C° 0.2 mm 2 mps 757 mmHg 90%
    21:00 +18°C° 0 mm 2 mps 757 mmHg 92%
    22:00 +18°C° 0 mm 1 mps 757 mmHg 94%
    23:00 +16°C° 0 mm 1 mps 758 mmHg 96%

    24 July, Wednesday

    Time Temperature Precipitation Wind Pressure Humidity
    00:00 +16°C° 0 mm 1 mps 758 mmHg 97%
    01:00 +15°C° 0 mm 1 mps 758 mmHg 97%
    02:00 +15°C° 0 mm 1 mps 758 mmHg 97%
    03:00 +15°C° 0 mm 1 mps 758 mmHg 97%
    04:00 +15°C° 0 mm 1 mps 758 mmHg 98%
    05:00 +15°C° 0 mm 1 mps 758 mmHg 98%
    06:00 +18°C° 0 mm 1 mps 758 mmHg 93%
    07:00 +19°C° 0 mm 1 mps 758 mmHg 88%
    08:00 +21°C° 0 mm 1 mps 759 mmHg 83%
    09:00 +22°C° 0 mm 1 mps 759 mmHg 74%
    10:00 +24°C° 0 mm 1 mps 759 mmHg 65%
    11:00 +26°C° 0 mm 2 mps 759 mmHg 56%
    12:00 +26°C° 0 mm 2 mps 759 mmHg 54%
    13:00 +27°C° 0 mm 2 mps 759 mmHg 52%
    14:00 +27°C° 0 mm 2 mps 759 mmHg 50%
    15:00 +27°C° 0 mm 2 mps 759 mmHg 52%
    16:00 +26°C° 0 mm 2 mps 759 mmHg 54%
    17:00 +26°C° 0 mm 3 mps 759 mmHg 56%
    18:00 +24°C° 0 mm 2 mps 759 mmHg 65%
    19:00 +21°C° 0 mm 2 mps 759 mmHg 73%
    20:00 +20°C° 0 mm 2 mps 759 mmHg 81%
    21:00 +18°C° 0 mm 2 mps 760 mmHg 85%
    22:00 +18°C° 0 mm 1 mps 760 mmHg 90%
    23:00 +16°C° 0 mm 1 mps 760 mmHg 94%

    25 July, Thursday

    Time Temperature Precipitation Wind Pressure Humidity
    00:00 +16°C° 0 mm 1 mps 761 mmHg 94%
    01:00 +16°C° 0 mm 1 mps 761 mmHg 95%
    02:00 +15°C° 0 mm 1 mps 761 mmHg 95%
    03:00 +15°C° 0 mm 1 mps 761 mmHg 95%
    04:00 +15°C° 0 mm 1 mps 761 mmHg 94%
    05:00 +15°C° 0 mm 1 mps 761 mmHg 94%
    06:00 +18°C° 0 mm 1 mps 762 mmHg 85%
    07:00 +21°C° 0 mm 1 mps 762 mmHg 76%
    08:00 +23°C° 0 mm 1 mps 762 mmHg 67%
    09:00 +24°C° 0 mm 1 mps 762 mmHg 61%
    10:00 +26°C° 0 mm 1 mps 762 mmHg 56%
    11:00 +27°C° 0 mm 1 mps 763 mmHg 50%
    12:00 +28°C° 0 mm 1 mps 762 mmHg 49%
    13:00 +29°C° 0 mm 1 mps 762 mmHg 48%
    14:00 +29°C° 0 mm 1 mps 762 mmHg 46%
    15:00 +29°C° 0 mm 1 mps 762 mmHg 48%
    16:00 +29°C° 0 mm 1 mps 762 mmHg 49%
    17:00 +29°C° 0 mm 2 mps 762 mmHg 51%
    18:00 +27°C° 0 mm 2 mps 762 mmHg 60%
    19:00 +25°C° 0 mm 2 mps 762 mmHg 69%
    20:00 +23°C° 0 mm 2 mps 762 mmHg 78%
    21:00 +22°C° 0 mm 1 mps 762 mmHg 80%
    22:00 +20°C° 0 mm 1 mps 763 mmHg 81%
    23:00 +19°C° 0 mm 1 mps 763 mmHg 82%

    26 July, Friday

    Time Temperature Precipitation Wind Pressure Humidity
    00:00 +19°C° 0 mm 1 mps 763 mmHg 84%
    01:00 +18°C° 0 mm 1 mps 763 mmHg 86%
    02:00 +16°C° 0 mm 0 mps 763 mmHg 88%
    03:00 +16°C° 0 mm 0 mps 763 mmHg 88%
    04:00 +16°C° 0 mm 0 mps 763 mmHg 89%
    05:00 +17°C° 0 mm 0 mps 763 mmHg 90%
    06:00 +19°C° 0 mm 0 mps 763 mmHg 82%
    07:00 +21°C° 0 mm 0 mps 763 mmHg 75%
    08:00 +23°C° 0 mm 0 mps 763 mmHg 68%
    09:00 +25°C° 0 mm 0 mps 763 mmHg 63%
    10:00 +28°C° 0 mm 1 mps 763 mmHg 58%
    11:00 +29°C° 0 mm 1 mps 763 mmHg 53%
    12:00 +30°C° 0 mm 1 mps 762 mmHg 51%
    13:00 +30°C° 0 mm 1 mps 762 mmHg 49%
    14:00 +30°C° 0 mm 2 mps 762 mmHg 47%
    15:00 +30°C° 0 mm 2 mps 762 mmHg 49%
    16:00 +29°C° 0 mm 2 mps 761 mmHg 51%
    17:00 +28°C° 0 mm 3 mps 761 mmHg 54%
    18:00 +27°C° 0 mm 2 mps 761 mmHg 61%
    19:00 +25°C° 0 mm 2 mps 761 mmHg 68%
    20:00 +23°C° 0 mm 1 mps 760 mmHg 75%
    21:00 +21°C° 0 mm 1 mps 760 mmHg 76%
    22:00 +20°C° 0 mm 1 mps 760 mmHg 76%
    23:00 +19°C° 0 mm 1 mps 760 mmHg 77%
    Show more